Location: Mattaponi
(37.5353°N, 76.7712°W)
Time: 22:27:23
(UTC+00:00)

Tiangong - Visible Passes

Search period start: 15 April 2024 00:00
Search period end: 25 April 2024 00:00
Orbit: 371 x 381 km, 41.5° (Epoch: 15 April)

Date Brightness Start Highest point End Pass type
(mag) Time Alt. Az. Time Alt. Az. Time Alt. Az.
16 Apr -0.1 00:24:01 10° SSE 00:25:17 12° SE 00:25:53 12° SE visible
17 Apr -1.7 00:56:14 10° SW 00:59:06 37° SSE 00:59:28 35° SE visible
18 Apr -1.8 01:30:05 10° WSW 01:32:46 62° W 01:32:46 62° W visible
19 Apr -2.2 00:27:39 10° WSW 00:30:41 62° SSE 00:33:45 10° ENE visible
19 Apr 0.3 02:04:28 10° W 02:05:50 22° WNW 02:05:50 22° WNW visible
20 Apr -1.6 01:01:48 10° W 01:04:50 55° NNW 01:06:38 21° ENE visible
21 Apr -1.0 01:36:14 10° WNW 01:39:09 37° N 01:39:20 37° N visible
22 Apr -1.2 00:33:33 10° W 00:36:32 43° N 00:39:30 10° ENE visible
22 Apr 0.4 02:10:31 10° WNW 02:11:54 22° NW 02:11:54 22° NW visible
23 Apr -1.0 01:07:57 10° WNW 01:10:51 37° N 01:12:23 22° ENE visible
24 Apr -1.4 01:42:08 10° WNW 01:44:49 48° NNW 01:44:49 48° NNW visible
